AirNav   Air Wisconsin Up To $57,000 Bonus
 
 575 users online  

T94 Twin-Oaks Airport
San Antonio, Texas, USA

GOING TO SAN ANTONIO?


FAA INFORMATION EFFECTIVE 15 AUGUST 2019

Location

FAA Identifier: T94
Lat/Long: 29-34-12.6730N 098-28-06.2010W
29-34.211217N 098-28.103350W
29.5701869,-98.4683892
(estimated)
Elevation: 873 ft. / 266 m (estimated)
Variation: 07E (1985)
From city: 3 miles N of SAN ANTONIO, TX
Time zone: UTC -5 (UTC -6 during Standard Time)
Zip code: 78232

Airport Operations

Airport use: Open to the public
Activation date: 03/1964
Control tower: no
ARTCC: HOUSTON CENTER
FSS: SAN ANGELO FLIGHT SERVICE STATION
NOTAMs facility: SJT (NOTAM-D service available)
Attendance: UNATNDD
Wind indicator: yes
Segmented circle: no

Airport Communications

CTAF: 122.9
WX ASOS at SAT (2.2 nm S): PHONE 210-805-5583
WX ASOS at SSF (14 nm S): PHONE 210-927-9391
WX AWOS-3 at 5C1 (15 nm NW): 118.725 (830-755-9099)

Nearby radio navigation aids

VOR radial/distance  VOR name  Freq  Var
SATr177/4.4SAN ANTONIO VORTAC116.8008E
RNDr283/10.0RANDOLPH VORTAC112.3005E
SSFr347/(18.8)STINSON VOR108.4009E

 
NDB name  Hdg/Dist  Freq  Var  ID
ALAMO109/5.736804EAN .- -.
DEVINE037/35.735907EHHH .... .... ....
HONDO064/38.632908EHMA .... -- .-

Airport Services

Parking: hangars and tiedowns
Airframe service: MINOR
Powerplant service: MINOR
Bulk oxygen: NONE

Runway Information

Runway 12/30

Dimensions: 2225 x 30 ft. / 678 x 9 m
Surface: asphalt, in fair condition
Weight bearing capacity: 
Single wheel: 4.0
Runway edge markings: RY NUMBERS 10 FT TALL; CNTRLN STRIPE 20 FT LONG WITH 20 FT SPACES.
RUNWAY 12  RUNWAY 30
Traffic pattern: leftleft
Markings: NSTD, in good conditionNSTD, in good condition
Obstructions: 65 ft. trees, 200 ft. from runway
+6 FT FENCE 30 FT L; ACES ROAD 50 FT R; BLDGS 60-100 FT L OF EXTDD CNTRLN; +30 FT TREE 17 FT FM RY END; +30-50 FT TREES FM THLD TO 200 FT FM THLD ACRS APCH; 5 FT FENCE 23 FT FM THLD ACRS APCH; 15 FT ROAD 34 FT FM THLD ACRS APCH.
34 ft. tree, 200 ft. from runway
6 FT FENCE 40 FT EAST OF RY; 5 FT FENCE 23 FT FM THLD ACROSS APPROACH; 13 FT ROAD 33 FT FM THLD ACROSS APPROACH.

Airport Ownership and Management from official FAA records

Ownership: Privately-owned
Owner: TWIN OAKS AIR PARK
630 HEIMER RD
SAN ANTONIO, TX 78232
Phone 210-494-3928
Manager: SHIRLEY FOWLER
630 HEIMER RD
SAN ANTONIO, TX 78232
Phone 210-494-3928

Airport Operational Statistics

Aircraft based on the field: 12
Single engine airplanes: 12
    
Aircraft operations: avg 48/month *
87% local general aviation
13% transient general aviation
* for 12-month period ending 12 May 2017

Additional Remarks

HGRS, TREES, BLDGS WITHIN 50' OF RWY.
RESIDENTAL HOUSES, HANGARS AND TREES OBSTRUCT RY PRIM SFC NORTHEAST OF RY.
ARPT CLSD AT NIGHT TO TRANSIENT ACFT.
WOODEN FENCE LCTD APRXLY 70 FT EAST OF RY ENTIRE LENGTH OF RY.
COORD ARR & DEP WITH SAN ANTONIO INTL ATCT.
FOR CD CTC SAN ANTONIO APCH AT 210-805-5516.

Instrument Procedures

There are no published instrument procedures at T94.

Some nearby airports with instrument procedures:

KSAT - San Antonio International Airport (2 nm S)
KRND - Randolph Air Force Base (10 nm E)
KSKF - Kelly Field Airport (13 nm SW)
KSSF - Stinson Municipal Airport (14 nm S)
5C1 - Boerne Stage Field Airport (15 nm NW)
 
Loc | Ops | Rwys | IFR | FBO | Links
Com | Nav | Svcs | Stats | Notes
Area around T94 (Twin-Oaks Airport)
 
Road maps at: MapQuest Bing Google
 
Aerial photo
WARNING: Photo may not be current or correct
Aerial photo of T94 (Twin-Oaks Airport)
Do you have a better or more recent aerial photo of Twin-Oaks Airport that you would like to share? If so, please send us your photo.

 
Sectional chart

 
Airport distance calculator
Flying to Twin-Oaks Airport? Find the distance to fly.

From to T94

Sunrise and sunset
Times for 19-Aug-2019
 Local
(UTC-5)
 Zulu
(UTC)
Morning civil twilight06:4011:40
Sunrise07:0512:05
Sunset20:1001:10
Evening civil twilight20:3501:35

Current date and time
Zulu (UTC)  20-Aug-2019 04:27:24
Local (UTC-5)  19-Aug-2019 23:27:24
 
METAR
KSAT 
2nm S 
200351Z 16009KT 10SM FEW250 30/22 A3000 RMK AO2 SLP137 T03000217
KRND 
11nm E 
200356Z AUTO 16013KT 10SM CLR 29/23 A3000 RMK AO2 SLP149 T02920229
KSKF 
13nm SW 
200356Z AUTO 14013KT 10SM CLR 30/22 A2998 RMK AO2 SLP143 T02990220 $
KSSF 
14nm S 
200353Z AUTO 14010G16KT 10SM CLR 31/20 A2997 RMK AO2 SLP135 T03060200
K5C1 
15nm NW 
200415Z AUTO 18007KT 10SM CLR 28/20 A3004 RMK AO1
TAF
KSAT 
2nm S 
191723Z 1918/2024 16011KT P6SM SCT040 SCT250 FM200700 16007KT P6SM BKN015 FM201500 18010KT P6SM SCT040 SCT250
KRND 
11nm E 
192145Z 1921/2023 13010G18KT 9999 SCT035 QNH2996INS BECMG 2006/2007 16008KT 9999 BKN015 QNH2998INS TEMPO 2010/2014 OVC013 BECMG 2015/2016 18010KT 9999 SCT020 SCT050 QNH3000INS BECMG 2017/2018 18010G15KT 9999 SKC QNH2999INS TX38/1921Z TN26/2012Z LAST NO AMDS AFT 2000 NEXT 2009
KSKF 
13nm SW 
200200Z 2002/2108 14012KT 9999 SKC QNH2989INS TEMPO 2002/2005 13015G25KT BECMG 2009/2010 16007KT 9999 BKN015 QNH3000INS TEMPO 2009/2015 SCT015 BECMG 2015/2016 15009KT 9999 SCT035 SCT090 QNH2992INS TX38/2021Z TN26/2012Z
KSSF 
14nm S 
191723Z 1918/2018 14011KT P6SM SCT040 SCT250 FM200700 VRB03KT P6SM BKN015 FM201400 17010KT P6SM SCT040 SCT250
NOTAMs
Click for the latest NOTAMs
NOTAMs are issued by the DoD/FAA and will open in a separate window not controlled by AirNav.

 

 
 

Would you like to see your business listed on this page?

 If your business provides an interesting product or service to pilots, flight crews, aircraft, or users of the Twin-Oaks Airport, you should consider listing it here.  To start the listing process, click on the button below
 
Add a business
 

Other Pages about Twin-Oaks Airport

Update a link
 
Copyright © AirNav, LLC. All rights reserved. Privacy Policy  Contact